Home   Weather   Szeged   Past weeks

Flag for Hungary Past Weather in Szeged, Hungary — Yesterday and Last 2 Weeks

Now
47 °F

Overcast.


Feels Like: 45 °F
Forecast: 55 / 76 °F
Wind: 3 mph from Southeast

Location: Szeged

Current Time: Apr 26, 2017 at 8:35:17 am

Latest Report: Apr 26, 2017 at 7:00 am


Visibility: 19 mi

Pressure: 29.93 "Hg

Humidity: 82%

Dew Point: 41 °F

Location of SzegedLocation

Past Weather in Szeged — Graph

°F

Szeged Temperature Yesterday

Maximum temperature yesterday: 71 °F (at 5:00 pm)
Minimum temperature yesterday: 42 °F (at 4:00 am)
Average temperature yesterday: 56 °F

High & Low Weather Summary for the Past Weeks

 TemperatureHumidityPressure
High71 °F (Apr 25, 5:00 pm)98% (Apr 19, 7:00 am)30.34 "Hg (Apr 19, 7:00 am)
Low32 °F (Apr 22, 1:00 am)33% (Apr 16, 6:00 pm)29.78 "Hg (Apr 19, 9:00 am)
Average48 °F67%30.02 "Hg
* Reported Apr 11 7:00 am — Apr 26 7:00 am, Szeged, Weather by CustomWeather, © 2017

Note: Actual official high and low records may vary slightly from our data, if they occured in-between our weather recording intervals... More about our weather records

Advertising

Szeged Weather History for the Previous 24 Hours

Scroll right to see more
 ConditionsComfort  
Time TempWeatherWind HumidityBarometerVisibility
7:00 am
Wed, Apr 26
47 °FOvercast.3 mph82%29.93 "Hg19 mi
6:00 am44 °FPartly sunny.3 mph83%29.92 "Hg16 mi
5:00 am46 °FPassing clouds.3 mph79%29.91 "Hg16 mi
4:00 am48 °FPassing clouds.3 mph78%29.90 "Hg19 mi
3:00 am47 °FClear.5 mph84%29.90 "Hg19 mi
2:00 am48 °FClear.3 mph84%29.91 "Hg19 mi
1:00 am51 °FClear.3 mph73%29.90 "Hg19 mi
12:00 am57 °FClear.5 mph59%29.89 "Hg19 mi
11:00 pm
Tue, Apr 25
57 °FPassing clouds.5 mph63%29.89 "Hg19 mi
10:00 pm56 °FOvercast.3 mph62%29.88 "Hg16 mi
9:00 pm60 °FPassing clouds.3 mph57%29.88 "Hg19 mi
8:00 pm60 °FPassing clouds.3 mph56%29.87 "Hg19 mi
7:00 pm67 °FScattered clouds.5 mph44%29.87 "Hg19 mi
6:00 pm69 °FScattered clouds.8 mph39%29.87 "Hg19 mi
5:00 pm71 °FPartly sunny.9 mph38%29.88 "Hg19 mi
4:00 pm69 °FPartly sunny.8 mph42%29.90 "Hg19 mi
3:00 pm69 °FPartly sunny.9 mph41%29.92 "Hg19 mi
2:00 pm69 °FPartly sunny.8 mph44%29.94 "Hg19 mi
1:00 pm67 °FPartly sunny.8 mph46%29.95 "Hg19 mi
12:00 pm66 °FPartly sunny.7 mph51%29.98 "Hg19 mi
11:00 am60 °FPartly sunny.6 mph59%29.99 "Hg12 mi
10:00 am54 °FOvercast.5 mph68%30.00 "Hg12 mi
9:00 am50 °FOvercast.5 mph73%30.01 "Hg12 mi
8:00 am47 °FOvercast.5 mph75%30.01 "Hg12 mi
Weather by CustomWeather, © 2017

See weather overviewHow to use our weather pages